N6767 EPKK-LSZA

Flight info

Callsign N6767
Flight time 1h 27m
Altitude 8000
Route TUSIN5J TUSIN M984 MIKOV/N0448F380 DCT LIMRA DCT DETSA/N0383F190 M984 LUSIL LUSIL7P
Aircraft A318/M-SDE3FGHIRWY/LB1

Departure

Time 2026-04-11 11:06
Airport Kraków John Paul II International Airport (EPKK)

Arrival

Time 2026-04-11 12:33
Airport Lugano Airport (LSZA)
Time Latitude Longitude Altitude Speed Heading
2026-04-11 10:45 50.07694 19.80163 800 ft 0 kts 348°
2026-04-11 10:58 50.07696 19.80163 800 ft 2 kts 348°
2026-04-11 10:58 50.07725 19.80152 800 ft 6 kts 341°
2026-04-11 10:58 50.07742 19.80117 800 ft 4 kts 282°
2026-04-11 10:59 50.07739 19.80059 800 ft 6 kts 258°
2026-04-11 10:59 50.07727 19.79972 800 ft 11 kts 257°
2026-04-11 10:59 50.07706 19.79821 800 ft 17 kts 258°
2026-04-11 10:59 50.07677 19.79616 800 ft 14 kts 256°
2026-04-11 11:00 50.07663 19.79519 800 ft 6 kts 257°
2026-04-11 11:00 50.07656 19.79467 800 ft 5 kts 258°
2026-04-11 11:00 50.07647 19.79402 800 ft 8 kts 258°
2026-04-11 11:00 50.07635 19.79311 800 ft 7 kts 258°
2026-04-11 11:01 50.07626 19.79243 800 ft 5 kts 258°
2026-04-11 11:01 50.07616 19.79177 800 ft 10 kts 257°
2026-04-11 11:01 50.07592 19.78999 800 ft 24 kts 257°
2026-04-11 11:01 50.07554 19.78735 800 ft 23 kts 258°
2026-04-11 11:02 50.07522 19.78504 800 ft 20 kts 258°
2026-04-11 11:02 50.07496 19.78316 800 ft 15 kts 257°
2026-04-11 11:02 50.07477 19.78179 800 ft 11 kts 258°
2026-04-11 11:02 50.07461 19.78070 800 ft 10 kts 259°
2026-04-11 11:03 50.07445 19.77944 800 ft 14 kts 258°
2026-04-11 11:03 50.07419 19.77753 800 ft 24 kts 261°
2026-04-11 11:03 50.07384 19.77506 800 ft 21 kts 257°
2026-04-11 11:03 50.07356 19.77314 800 ft 16 kts 257°
2026-04-11 11:04 50.07337 19.77173 800 ft 12 kts 258°
2026-04-11 11:04 50.07320 19.77054 800 ft 11 kts 258°
2026-04-11 11:04 50.07307 19.76944 800 ft 9 kts 271°
2026-04-11 11:04 50.07327 19.76897 800 ft 4 kts 341°
2026-04-11 11:05 50.07366 19.76883 800 ft 8 kts 348°
2026-04-11 11:05 50.07443 19.76859 800 ft 14 kts 349°
2026-04-11 11:05 50.07534 19.76858 802 ft 11 kts 30°
2026-04-11 11:05 50.07565 19.76983 802 ft 34 kts 79°
2026-04-11 11:06 50.07669 19.77730 798 ft 107 kts 78°
2026-04-11 11:06 50.07867 19.79186 929 ft 160 kts 78°
2026-04-11 11:06 50.08069 19.80822 2056 ft 147 kts 80°
2026-04-11 11:06 50.08271 19.82421 2866 ft 160 kts 80°
2026-04-11 11:07 50.08520 19.84259 3354 ft 185 kts 79°
2026-04-11 11:07 50.08840 19.86340 3695 ft 211 kts 78°
2026-04-11 11:07 50.09107 19.88692 4166 ft 229 kts 94°
2026-04-11 11:07 50.08513 19.91024 4726 ft 249 kts 133°
2026-04-11 11:08 50.07011 19.92272 5683 ft 251 kts 171°
2026-04-11 11:08 50.05279 19.91982 6730 ft 254 kts 204°
2026-04-11 11:08 50.03955 19.90192 7592 ft 262 kts 239°
2026-04-11 11:08 50.03354 19.87432 8229 ft 281 kts 257°
2026-04-11 11:09 50.03025 19.84441 8145 ft 275 kts 261°
2026-04-11 11:09 50.02728 19.81510 8152 ft 280 kts 258°
2026-04-11 11:09 50.02464 19.79529 8159 ft 271 kts 256°
2026-04-11 11:09 50.02031 19.76675 8500 ft 273 kts 256°
2026-04-11 11:10 50.01612 19.73771 8785 ft 285 kts 258°
2026-04-11 11:10 50.01212 19.70804 8783 ft 272 kts 258°
2026-04-11 11:10 50.00810 19.67886 9242 ft 281 kts 258°
2026-04-11 11:10 50.00391 19.64929 9793 ft 281 kts 258°
2026-04-11 11:11 49.99969 19.61934 10320 ft 288 kts 258°
2026-04-11 11:11 49.99541 19.58878 10821 ft 290 kts 258°
2026-04-11 11:11 49.99102 19.55755 11343 ft 306 kts 258°
2026-04-11 11:11 49.98633 19.52440 11870 ft 315 kts 258°
2026-04-11 11:12 49.98160 19.49107 12399 ft 321 kts 258°
2026-04-11 11:12 49.97674 19.45684 12934 ft 325 kts 258°
2026-04-11 11:12 49.97184 19.42230 13481 ft 328 kts 258°
2026-04-11 11:12 49.96687 19.38746 14025 ft 332 kts 258°
2026-04-11 11:13 49.96189 19.35258 14507 ft 335 kts 258°
2026-04-11 11:13 49.95679 19.31690 14951 ft 335 kts 259°
2026-04-11 11:13 49.95169 19.28141 15611 ft 342 kts 259°
2026-04-11 11:13 49.94642 19.24490 16438 ft 346 kts 259°
2026-04-11 11:14 49.94116 19.20839 17376 ft 346 kts 260°
2026-04-11 11:14 49.93592 19.17206 18337 ft 345 kts 261°
2026-04-11 11:14 49.93070 19.13599 19189 ft 343 kts 262°
2026-04-11 11:14 49.92542 19.09967 19990 ft 342 kts 264°
2026-04-11 11:15 49.92022 19.06396 20744 ft 341 kts 264°
2026-04-11 11:15 49.91497 19.02807 21516 ft 340 kts 265°
2026-04-11 11:15 49.90978 18.99264 22310 ft 337 kts 266°
2026-04-11 11:15 49.90463 18.95746 23084 ft 335 kts 267°
2026-04-11 11:16 49.89943 18.92191 23778 ft 335 kts 267°
2026-04-11 11:16 49.89429 18.88701 24279 ft 336 kts 267°
2026-04-11 11:16 49.88903 18.85132 24760 ft 338 kts 267°
2026-04-11 11:16 49.88379 18.81570 25148 ft 343 kts 267°
2026-04-11 11:17 49.87581 18.77966 25411 ft 366 kts 253°
2026-04-11 11:17 49.86232 18.74527 25665 ft 381 kts 248°
2026-04-11 11:17 49.84791 18.71047 25905 ft 390 kts 247°
2026-04-11 11:17 49.83247 18.67500 26164 ft 399 kts 245°
2026-04-11 11:18 49.81668 18.63965 26419 ft 405 kts 245°
2026-04-11 11:18 49.80073 18.60318 26671 ft 411 kts 246°
2026-04-11 11:18 49.78478 18.56611 26927 ft 417 kts 246°
2026-04-11 11:18 49.76842 18.52851 27189 ft 423 kts 245°
2026-04-11 11:19 49.75193 18.49119 27679 ft 422 kts 245°
2026-04-11 11:19 49.73540 18.45362 28261 ft 418 kts 245°
2026-04-11 11:19 49.71932 18.41683 28832 ft 415 kts 246°
2026-04-11 11:19 49.70314 18.37974 29116 ft 419 kts 246°
2026-04-11 11:20 49.68662 18.34215 29400 ft 423 kts 245°
2026-04-11 11:20 49.66999 18.30454 29685 ft 426 kts 245°
2026-04-11 11:20 49.65318 18.26650 29921 ft 429 kts 245°
2026-04-11 11:20 49.63635 18.22833 30150 ft 431 kts 245°
2026-04-11 11:21 49.61940 18.18994 30353 ft 433 kts 245°
2026-04-11 11:21 49.60255 18.15195 30541 ft 435 kts 245°
2026-04-11 11:21 49.58537 18.11328 30728 ft 437 kts 245°
2026-04-11 11:21 49.56813 18.07447 30919 ft 439 kts 245°
2026-04-11 11:22 49.55086 18.03562 31117 ft 440 kts 245°
2026-04-11 11:22 49.53361 17.99689 31306 ft 442 kts 245°
2026-04-11 11:22 49.51604 17.95757 31501 ft 443 kts 245°
2026-04-11 11:22 49.49869 17.91873 31690 ft 444 kts 245°
2026-04-11 11:23 49.48121 17.87962 31896 ft 445 kts 245°
2026-04-11 11:23 49.46349 17.84009 32092 ft 446 kts 244°
2026-04-11 11:23 49.44591 17.80099 32291 ft 447 kts 244°
2026-04-11 11:23 49.42831 17.76184 32501 ft 448 kts 244°
2026-04-11 11:24 49.41063 17.72251 32699 ft 448 kts 244°
2026-04-11 11:24 49.39290 17.68317 32906 ft 449 kts 244°
2026-04-11 11:24 49.37497 17.64351 33114 ft 449 kts 244°
2026-04-11 11:24 49.35721 17.60424 33324 ft 450 kts 244°
2026-04-11 11:25 49.33950 17.56511 33536 ft 450 kts 244°
2026-04-11 11:25 49.32131 17.52594 33739 ft 454 kts 240°
2026-04-11 11:25 49.30034 17.48928 33961 ft 459 kts 237°
2026-04-11 11:25 49.27874 17.45300 34200 ft 458 kts 237°
2026-04-11 11:26 49.25763 17.41709 34431 ft 455 kts 238°
2026-04-11 11:26 49.23664 17.38085 34659 ft 454 kts 238°
2026-04-11 11:26 49.21564 17.34485 34895 ft 453 kts 237°
2026-04-11 11:26 49.19444 17.30897 35136 ft 451 kts 237°
2026-04-11 11:27 49.17351 17.27356 35384 ft 449 kts 237°
2026-04-11 11:27 49.15277 17.23824 35614 ft 448 kts 238°
2026-04-11 11:27 49.13209 17.20303 35860 ft 446 kts 237°
2026-04-11 11:27 49.11128 17.16783 36107 ft 444 kts 237°
2026-04-11 11:28 49.09069 17.13309 36334 ft 443 kts 237°
2026-04-11 11:28 49.06997 17.09808 36507 ft 442 kts 237°
2026-04-11 11:28 49.04953 17.06355 36708 ft 441 kts 237°
2026-04-11 11:28 49.02880 17.02863 36915 ft 440 kts 237°
2026-04-11 11:29 48.98791 16.95994 37327 ft 437 kts 237°
2026-04-11 11:29 48.96757 16.92578 37541 ft 435 kts 237°
2026-04-11 11:29 48.94739 16.89197 37755 ft 433 kts 237°
2026-04-11 11:30 48.92702 16.85790 37976 ft 430 kts 237°
2026-04-11 11:30 48.90696 16.82439 38157 ft 429 kts 237°
2026-04-11 11:30 48.86658 16.75690 38130 ft 435 kts 236°
2026-04-11 11:31 48.82552 16.68868 38121 ft 441 kts 236°
2026-04-11 11:31 48.78468 16.61917 38119 ft 438 kts 244°
2026-04-11 11:32 48.75393 16.54088 38115 ft 437 kts 248°
2026-04-11 11:32 48.72269 16.46089 38126 ft 442 kts 248°
2026-04-11 11:33 48.69156 16.38048 38119 ft 447 kts 248°
2026-04-11 11:33 48.65948 16.29840 38123 ft 452 kts 247°
2026-04-11 11:34 48.62797 16.21799 38119 ft 441 kts 248°
2026-04-11 11:34 48.59688 16.13858 38121 ft 437 kts 248°
2026-04-11 11:35 48.56598 16.06012 38112 ft 436 kts 248°
2026-04-11 11:35 48.53491 15.98136 38126 ft 437 kts 247°
2026-04-11 11:36 48.50370 15.90256 38112 ft 437 kts 247°
2026-04-11 11:36 48.47253 15.82407 38292 ft 433 kts 247°
2026-04-11 11:37 48.45722 15.78564 38515 ft 431 kts 247°
2026-04-11 11:37 48.44169 15.74668 38741 ft 428 kts 247°
2026-04-11 11:37 48.42660 15.70882 38924 ft 425 kts 247°
2026-04-11 11:37 48.41145 15.67091 39104 ft 422 kts 247°
2026-04-11 11:38 48.38104 15.59491 39116 ft 426 kts 246°
2026-04-11 11:38 48.35027 15.51834 39120 ft 430 kts 246°
2026-04-11 11:39 48.31908 15.44089 39103 ft 435 kts 246°
2026-04-11 11:39 48.28775 15.36337 39103 ft 438 kts 246°
2026-04-11 11:40 48.25603 15.28504 39091 ft 438 kts 246°
2026-04-11 11:40 48.22444 15.20736 39097 ft 437 kts 246°
2026-04-11 11:41 48.19269 15.12941 39082 ft 435 kts 246°
2026-04-11 11:41 48.16124 15.05246 39081 ft 435 kts 246°
2026-04-11 11:42 48.12966 14.97539 39069 ft 434 kts 246°
2026-04-11 11:42 48.09802 14.89847 38995 ft 431 kts 246°
2026-04-11 11:43 48.06681 14.82267 39086 ft 431 kts 246°
2026-04-11 11:43 48.03504 14.74585 39086 ft 433 kts 245°
2026-04-11 11:44 48.00338 14.66949 39079 ft 432 kts 245°
2026-04-11 11:44 47.97190 14.59373 39074 ft 431 kts 245°
2026-04-11 11:45 47.94015 14.51764 39064 ft 429 kts 245°
2026-04-11 11:45 47.90832 14.44216 39064 ft 432 kts 241°
2026-04-11 11:46 47.87248 14.36991 39066 ft 434 kts 241°
2026-04-11 11:46 47.83701 14.29759 39052 ft 433 kts 240°
2026-04-11 11:47 47.80136 14.22582 39047 ft 433 kts 240°
2026-04-11 11:47 47.76576 14.15399 39033 ft 430 kts 240°
2026-04-11 11:48 47.73030 14.08281 39037 ft 430 kts 240°
2026-04-11 11:48 47.69456 14.01105 39032 ft 431 kts 240°
2026-04-11 11:49 47.65885 13.93975 39026 ft 429 kts 240°
2026-04-11 11:49 47.62335 13.86897 39035 ft 429 kts 240°
2026-04-11 11:50 47.58806 13.79873 39014 ft 429 kts 240°
2026-04-11 11:50 47.55229 13.72779 39021 ft 429 kts 239°
2026-04-11 11:51 47.51655 13.65709 39012 ft 428 kts 239°
2026-04-11 11:51 47.48107 13.58707 39014 ft 429 kts 239°
2026-04-11 11:52 47.44530 13.51666 39006 ft 428 kts 239°
2026-04-11 11:52 47.40950 13.44636 39005 ft 428 kts 239°
2026-04-11 11:53 47.37376 13.37636 39004 ft 427 kts 239°
2026-04-11 11:53 47.33802 13.30654 39002 ft 427 kts 239°
2026-04-11 11:54 47.30210 13.23659 39003 ft 428 kts 238°
2026-04-11 11:54 47.26641 13.16720 39007 ft 426 kts 238°
2026-04-11 11:55 47.23019 13.09698 39000 ft 429 kts 238°
2026-04-11 11:55 47.19437 13.02774 39002 ft 427 kts 238°
2026-04-11 11:56 47.15816 12.95784 39002 ft 429 kts 237°
2026-04-11 11:56 47.12208 12.88852 39006 ft 427 kts 237°
2026-04-11 11:57 47.08619 12.81954 38998 ft 426 kts 237°
2026-04-11 11:57 47.05015 12.75063 38999 ft 425 kts 237°
2026-04-11 11:58 47.01413 12.68177 39000 ft 426 kts 237°
2026-04-11 11:58 46.97807 12.61318 39001 ft 426 kts 237°
2026-04-11 11:59 46.94789 12.55578 39011 ft 426 kts 237°
2026-04-11 11:59 46.91173 12.48717 39032 ft 426 kts 236°
2026-04-11 12:00 46.87556 12.41885 39046 ft 425 kts 236°
2026-04-11 12:00 46.83927 12.35026 39065 ft 426 kts 236°
2026-04-11 12:01 46.80341 12.28194 39076 ft 422 kts 242°
2026-04-11 12:01 46.77663 12.20624 39076 ft 421 kts 246°
2026-04-11 12:02 46.74991 12.13011 39077 ft 421 kts 246°
2026-04-11 12:02 46.72352 12.05426 39066 ft 420 kts 246°
2026-04-11 12:03 46.69685 11.97819 39052 ft 421 kts 245°
2026-04-11 12:03 46.67030 11.90263 39030 ft 421 kts 245°
2026-04-11 12:04 46.64358 11.82676 39015 ft 421 kts 245°
2026-04-11 12:04 46.61678 11.75092 39005 ft 422 kts 245°
2026-04-11 12:05 46.58993 11.67512 39005 ft 421 kts 245°
2026-04-11 12:05 46.56305 11.59946 39010 ft 421 kts 245°
2026-04-11 12:06 46.53609 11.52381 39000 ft 421 kts 244°
2026-04-11 12:06 46.50918 11.44829 39002 ft 420 kts 245°
2026-04-11 12:07 46.49624 11.41022 38652 ft 419 kts 246°
2026-04-11 12:07 46.48375 11.37262 38099 ft 416 kts 245°
2026-04-11 12:07 46.47083 11.33485 37541 ft 414 kts 245°
2026-04-11 12:07 46.45799 11.29807 37003 ft 412 kts 245°
2026-04-11 12:08 46.44509 11.26066 36473 ft 413 kts 245°
2026-04-11 12:08 46.43233 11.22324 35953 ft 413 kts 245°
2026-04-11 12:08 46.41961 11.18622 35476 ft 414 kts 245°
2026-04-11 12:08 46.40662 11.14877 35073 ft 416 kts 245°
2026-04-11 12:09 46.39353 11.11101 34592 ft 417 kts 245°
2026-04-11 12:09 46.38067 11.07379 34115 ft 418 kts 244°
2026-04-11 12:09 46.36758 11.03596 33584 ft 419 kts 244°
2026-04-11 12:09 46.35442 10.99808 33039 ft 419 kts 244°
2026-04-11 12:10 46.34145 10.96080 32517 ft 420 kts 244°
2026-04-11 12:10 46.32829 10.92302 31992 ft 420 kts 244°
2026-04-11 12:10 46.31509 10.88511 31486 ft 422 kts 244°
2026-04-11 12:10 46.30188 10.84727 30977 ft 421 kts 244°
2026-04-11 12:11 46.28862 10.80941 30486 ft 422 kts 244°
2026-04-11 12:11 46.27530 10.77133 29988 ft 423 kts 244°
2026-04-11 12:11 46.26212 10.73369 29428 ft 425 kts 244°
2026-04-11 12:11 46.24867 10.69547 28864 ft 425 kts 244°
2026-04-11 12:12 46.23523 10.65727 28333 ft 429 kts 244°
2026-04-11 12:12 46.22167 10.61872 27790 ft 430 kts 244°
2026-04-11 12:12 46.20834 10.58097 27271 ft 413 kts 245°
2026-04-11 12:12 46.19548 10.54462 26754 ft 398 kts 245°
2026-04-11 12:13 46.18326 10.51006 26203 ft 385 kts 245°
2026-04-11 12:13 46.17121 10.47597 25471 ft 377 kts 245°
2026-04-11 12:13 46.15933 10.44243 24756 ft 373 kts 245°
2026-04-11 12:13 46.14752 10.40923 24057 ft 369 kts 246°
2026-04-11 12:14 46.13584 10.37630 23322 ft 367 kts 246°
2026-04-11 12:14 46.12433 10.34392 22518 ft 365 kts 246°
2026-04-11 12:14 46.11275 10.31148 21731 ft 361 kts 246°
2026-04-11 12:14 46.10132 10.27946 20954 ft 355 kts 246°
2026-04-11 12:15 46.09008 10.24799 20206 ft 351 kts 246°
2026-04-11 12:15 46.07908 10.21719 19497 ft 350 kts 245°
2026-04-11 12:15 46.06781 10.18570 18779 ft 348 kts 245°
2026-04-11 12:15 46.05686 10.15523 18057 ft 346 kts 245°
2026-04-11 12:16 46.04537 10.12481 17247 ft 344 kts 239°
2026-04-11 12:16 46.02894 10.09960 16501 ft 346 kts 224°
2026-04-11 12:16 46.01025 10.07767 15826 ft 345 kts 222°
2026-04-11 12:16 45.99215 10.05653 15445 ft 335 kts 223°
2026-04-11 12:17 45.97401 10.03490 15082 ft 341 kts 223°
2026-04-11 12:17 45.95579 10.01330 14711 ft 337 kts 223°
2026-04-11 12:17 45.93779 9.99216 14354 ft 338 kts 223°
2026-04-11 12:17 45.91972 9.97086 13942 ft 336 kts 223°
2026-04-11 12:18 45.90166 9.94951 13422 ft 333 kts 223°
2026-04-11 12:18 45.88371 9.92838 12900 ft 332 kts 222°
2026-04-11 12:18 45.84831 9.88683 12026 ft 323 kts 222°
2026-04-11 12:19 45.83102 9.86652 12047 ft 328 kts 222°
2026-04-11 12:19 45.81345 9.84583 12049 ft 325 kts 222°
2026-04-11 12:19 45.79581 9.82512 12040 ft 327 kts 222°
2026-04-11 12:19 45.77821 9.80454 12041 ft 328 kts 221°
2026-04-11 12:20 45.76072 9.78409 12051 ft 326 kts 222°
2026-04-11 12:20 45.74308 9.76343 12049 ft 327 kts 221°
2026-04-11 12:20 45.72541 9.74277 12040 ft 328 kts 222°
2026-04-11 12:20 45.70771 9.72211 12044 ft 327 kts 223°
2026-04-11 12:21 45.69286 9.69844 12045 ft 323 kts 242°
2026-04-11 12:21 45.68496 9.66838 12059 ft 318 kts 262°
2026-04-11 12:21 45.68493 9.63728 12060 ft 316 kts 281°
2026-04-11 12:21 45.69127 9.60704 11911 ft 317 kts 290°
2026-04-11 12:22 45.69869 9.57793 11654 ft 314 kts 290°
2026-04-11 12:22 45.70619 9.54839 11408 ft 313 kts 290°
2026-04-11 12:22 45.71343 9.51892 11154 ft 313 kts 289°
2026-04-11 12:22 45.72054 9.48982 10913 ft 313 kts 289°
2026-04-11 12:23 45.72781 9.46034 10666 ft 312 kts 290°
2026-04-11 12:23 45.73506 9.43107 10465 ft 308 kts 289°
2026-04-11 12:23 45.74193 9.40316 10218 ft 293 kts 289°
2026-04-11 12:23 45.74855 9.37606 10054 ft 282 kts 289°
2026-04-11 12:24 45.75510 9.34937 10072 ft 283 kts 289°
2026-04-11 12:24 45.76151 9.32320 10071 ft 281 kts 289°
2026-04-11 12:24 45.76800 9.29661 10067 ft 281 kts 289°
2026-04-11 12:24 45.77446 9.27007 10069 ft 283 kts 289°
2026-04-11 12:25 45.78097 9.24352 10067 ft 282 kts 289°
2026-04-11 12:25 45.78740 9.21721 10056 ft 282 kts 289°
2026-04-11 12:25 45.79386 9.19064 10054 ft 281 kts 289°
2026-04-11 12:25 45.80026 9.16429 10047 ft 283 kts 289°
2026-04-11 12:26 45.80673 9.13766 10051 ft 282 kts 289°
2026-04-11 12:26 45.81305 9.11089 9820 ft 282 kts 288°
2026-04-11 12:26 45.81915 9.08445 9433 ft 276 kts 288°
2026-04-11 12:26 45.82505 9.05877 9044 ft 270 kts 288°
2026-04-11 12:27 45.83098 9.03346 8661 ft 265 kts 288°
2026-04-11 12:27 45.83682 9.00859 8276 ft 260 kts 288°
2026-04-11 12:27 45.84247 8.98423 8006 ft 252 kts 288°
2026-04-11 12:27 45.84781 8.96121 7971 ft 235 kts 288°
2026-04-11 12:28 45.85304 8.93912 7616 ft 230 kts 289°
2026-04-11 12:28 45.85803 8.91786 7235 ft 226 kts 288°
2026-04-11 12:28 45.86296 8.89654 6849 ft 223 kts 288°
2026-04-11 12:28 45.86844 8.87590 6446 ft 217 kts 300°
2026-04-11 12:29 45.87907 8.86192 6029 ft 204 kts 334°
2026-04-11 12:29 45.89279 8.85786 5625 ft 203 kts
2026-04-11 12:29 45.90600 8.86255 5165 ft 192 kts 18°
2026-04-11 12:29 45.91831 8.86924 4571 ft 190 kts 21°
2026-04-11 12:30 45.93022 8.87596 3992 ft 176 kts 22°
2026-04-11 12:30 45.94130 8.88216 3498 ft 166 kts 21°
2026-04-11 12:30 45.95200 8.88700 3051 ft 162 kts 15°
2026-04-11 12:30 45.96258 8.89071 2590 ft 152 kts 15°
2026-04-11 12:31 45.97248 8.89505 2151 ft 148 kts 20°
2026-04-11 12:31 45.98094 8.90203 1904 ft 143 kts 38°
2026-04-11 12:31 45.98832 8.91099 1904 ft 138 kts 44°
2026-04-11 12:31 45.99573 8.92031 1910 ft 138 kts 38°
2026-04-11 12:32 46.00419 8.92708 1806 ft 139 kts 26°
2026-04-11 12:32 46.01328 8.93267 1654 ft 140 kts 20°
2026-04-11 12:32 46.02266 8.93350 1487 ft 139 kts 334°
2026-04-11 12:32 46.02675 8.92245 1366 ft 135 kts 245°
2026-04-11 12:33 46.01910 8.91738 1194 ft 131 kts 184°
2026-04-11 12:33 46.01057 8.91363 965 ft 129 kts 198°
2026-04-11 12:33 46.00334 8.91017 911 ft 56 kts 199°
2026-04-11 12:33 46.00090 8.90900 910 ft 25 kts 197°
2026-04-11 12:34 46.00049 8.90879 913 ft 3 kts 201°
2026-04-11 12:34 46.00014 8.90860 911 ft 8 kts 201°
2026-04-11 12:34 45.99971 8.90840 911 ft 4 kts 201°
2026-04-11 12:34 45.99948 8.90828 911 ft 4 kts 201°
2026-04-11 12:35 45.99915 8.90810 911 ft 5 kts 200°
2026-04-11 12:35 45.99896 8.90803 911 ft 2 kts 188°
2026-04-11 12:35 45.99890 8.90804 911 ft 0 kts 165°
2026-04-11 12:35 45.99880 8.90807 911 ft 0 kts 186°
2026-04-11 12:36 45.99878 8.90805 911 ft 0 kts 213°
2026-04-11 12:36 45.99878 8.90804 911 ft 0 kts 230°
2026-04-11 12:36 45.99877 8.90796 911 ft 1 kts 277°
2026-04-11 12:36 45.99881 8.90791 918 ft 0 kts 334°
2026-04-11 12:37 45.99897 8.90797 911 ft 6 kts 31°
2026-04-11 12:37 45.99928 8.90818 916 ft 5 kts 19°
2026-04-11 12:37 45.99963 8.90834 915 ft 6 kts 19°
2026-04-11 12:37 46.00003 8.90854 911 ft 7 kts 19°
2026-04-11 12:38 46.00053 8.90879 911 ft 9 kts 17°
2026-04-11 12:38 46.00122 8.90888 912 ft 9 kts 335°
2026-04-11 12:38 46.00148 8.90822 906 ft 9 kts 276°
2026-04-11 12:38 46.00154 8.90771 903 ft 1 kts 298°
2026-04-11 12:39 46.00157 8.90767 903 ft 0 kts 330°
2026-04-11 12:39 46.00160 8.90766 903 ft 0 kts 348°
2026-04-11 12:39 46.00162 8.90767 903 ft 0 kts
2026-04-11 12:39 46.00174 8.90772 903 ft 2 kts 20°
2026-04-11 12:40 46.00187 8.90779 903 ft 0 kts 19°